• Join FlightAware (Why Join?)
  • Login
  • US Flag 
12:48AM EST


 

Airport Tracker/Info


-or-


 

Live Flight TrackerFlight Track Log ✈ N6711L ✈ 23-Jun-2013 ✈ KEYW - KPBI

Flight Track Log - Related Links

Times and Time Zones

All times are in EDT time to prevent confusion due to time zone crossing. See the N6711L flight status page for this flight to view local times or setup timezone preferences in your user account.

Time Position Orientation Groundspeed Altitude Reporting Facility
EDT Latitude Longitude Course Direction KTS MPH feet Rate Location/Type
11:40AM 25.0250 -81.5756 18° North 174 200 8,800  Level Miami Center
11:42AM 25.1158 -81.5422 18° North 173 199 8,700  Descending Miami Center
11:43AM 25.1583 -81.5142 31° Northeast 168 193 8,800  Climbing Miami Center
11:44AM 25.2011 -81.4836 33° Northeast 173 199 8,800  Level Miami Center
11:45AM 25.2439 -81.4553 31° Northeast 173 199 8,800 -60 Level Miami Center
11:46AM 25.2825 -81.4222 38° Northeast 173 199 8,700  Descending Miami Center
11:47AM 25.3231 -81.3939 32° Northeast 173 199 8,800  Climbing Miami Center
11:48AM 25.3636 -81.3611 36° Northeast 173 199 8,800  Level Miami Center
11:49AM 25.4042 -81.3325 33° Northeast 173 199 8,800  Level Miami Center
11:50AM 25.4450 -81.2997 36° Northeast 173 199 8,800  Level Miami Center
11:51AM 25.4897 -81.2692 32° Northeast 173 199 8,800  Level Miami Center
11:52AM 25.5283 -81.2383 36° Northeast 173 199 8,800  Level Miami Center
11:53AM 25.5706 -81.2144 27° Northeast 173 199 8,800 -60 Level Miami Center
11:54AM 25.6214 -81.1978 16° North 173 199 8,700 -60 Descending Miami Center
11:55AM 25.6678 -81.1811 18° North 173 199 8,700  Level Miami Center
11:56AM 25.7100 -81.1594 25° Northeast 173 199 8,800  Climbing Miami Center
11:57AM 25.7489 -81.1217 41° Northeast 167 192 8,700 -60 Descending Miami Center
11:58AM 25.7853 -81.0883 40° Northeast 172 198 8,700  Level Miami Center
11:59AM 25.8092 -81.0547 52° Northeast 175 201 8,700  Level Miami Center
12:00PM 25.8233 -81.0022 73° East 171 197 8,700  Level Miami Center
12:01PM 25.8658 -80.9736 31° Northeast 186 214 8,700  Level Miami Center
12:02PM 25.8983 -80.9308 50° Northeast 183 211 8,700  Level Miami Center
12:03PM 25.9389 -80.9022 32° Northeast 176 203 8,800  Climbing Miami Center
12:04PM 25.9836 -80.8644 37° Northeast 180 207 8,700 -60 Descending Miami Center
12:05PM 26.0264 -80.8311 35° Northeast 168 193 8,700  Level Miami Center
12:06PM 26.0608 -80.7931 45° Northeast 168 193 8,800  Climbing Miami Center
12:07PM 26.1014 -80.7597 36° Northeast 168 193 8,700 -60 Descending Miami Center
12:08PM 26.1478 -80.7425 18° North 168 193 8,700  Level Miami Center
12:09PM 26.1903 -80.7161 29° Northeast 181 208 8,700  Level Miami Center
12:10PM 26.2350 -80.6875 30° Northeast 179 206 8,700  Level Miami Center
12:11PM 26.2775 -80.6589 31° Northeast 177 204 8,700  Level Miami Center
12:12PM 26.3136 -80.6275 38° Northeast 178 205 8,700 -60 Level Miami Center
12:13PM 26.3583 -80.5964 32° Northeast 177 204 8,600 -360 Descending Miami Center
12:14PM 26.4097 -80.5542 36° Northeast 193 222 8,000 -720 Descending Miami Center
12:15PM 26.4544 -80.5206 34° Northeast 201 231 7,100 -840 Descending Miami Center
12:16PM 26.5053 -80.4853 32° Northeast 205 236 6,300 -780 Descending Miami Center
12:17PM 26.5458 -80.4517 37° Northeast 201 231 5,600 -780 Descending Miami Center
12:18PM 26.5947 -80.4183 31° Northeast 202 232 4,800 -900 Descending Miami Center
12:19PM 26.6475 -80.3919 24° Northeast 202 232 3,800 -900 Descending Miami Center
12:20PM 26.6983 -80.3631 27° Northeast 196 226 3,000 -840 Descending Miami Center
12:22PM 26.6940 -80.2860 70° East  Level Estimated
12:29PM 26.6832 -80.0956 70° East  Level Estimated
12:30PM 26.6832 -80.0956 70° East  Level Estimated
12:31PM 26.6832 -80.0956 70° East  Level Estimated
12:32PM 26.6832 -80.0956 70° East  Level Estimated
12:33PM 26.6832 -80.0956 70° East  Level Estimated
12:34PM 26.6832 -80.0956 70° East  Level Estimated
12:35PM 26.6832 -80.0956 70° East  Level Estimated
12:36PM 26.6832 -80.0956 70° East  Level Estimated
12:37PM 26.6832 -80.0956 70° East  Level Estimated
12:38PM 26.6832 -80.0956 70° East  Level Estimated
12:39PM 26.6832 -80.0956 70° East  Level Estimated
12:40PM 26.6832 -80.0956 70° East  Level Estimated
12:41PM 26.6832 -80.0956 70° East  Level Estimated
12:42PM 26.6832 -80.0956 70° East  Level Estimated